(90482) Orcus
ephemeris date magn radius delta ra dec elong phase
Today13 Jul 202619.147.984 AU48.511 AU10h38m-12°59'58.3°1.0°
Opposition8 Mar 202719.047.968 AU47.038 AU10h43m-14°16'159.3°0.4°
(90482) Orcus - 2026-07-13
astro.vanbuitenen.nl


 
-1 year
-1 month
-1 day
Now
+1 day
+1 month
+1 year

The interactive orbit chart above shows the body's path through the solar system and its position at the given date. Green and blue lines are shown perpendicular to the ecliptic plane: Green if the path is above the ecliptic plane, blue if it is below. (Left-click and drag to rotate the view; Right-click and drag to move the view; Use scroll wheel to zoom in our out.)

The orbital elements of Orcus are:

            e (Eccentricity)                : 0.2205384
            a (Semimajor axis)              : 39.3761338
            i (Inclination)                 : 20.55681
            Ω (Longitude of ascending node) : 268.40537
            ω (Argument of perihelion)      : 73.56374
            M (Mean anomaly)                : 189.10476
            Epoch                           : 2026 Jun 09

            L (Longitude of perihelion)     : 340.91751
            B (Latitude of perihelion)      : 19.68123
            P (Orbital period in years)     : 247.09            
        

The light curve chart below shows the estimated development of the minor planet's magnitude.


The all-sky chart below shows the path of the minor planet over the same period as the light curve. The current position is marked yellow.





The following chart shows the path of the minor planet in the next few days. The field of view is optimized for (~10x50) binoculars and finderscopes.




Ephemerides:
Date       Time       RA (2000)    DEC (2000)    delta   radius  elong  phase   PA    magn
2026-07-13 00:00 UT   10 38 09.1   -12 59 02    48.511   47.984   58.3    1.0   126   19.1 
2026-07-13 09:53 UT   10 38 10.6   -12 59 03    48.516   47.984   57.9    1.0   127   19.1 
2026-07-14 00:00 UT   10 38 12.8   -12 59 04    48.524   47.984   57.4    1.0   127   19.1 
2026-07-15 00:00 UT   10 38 16.5   -12 59 07    48.537   47.984   56.6    1.0   127   19.1 
2026-07-16 00:00 UT   10 38 20.3   -12 59 10    48.549   47.984   55.7    1.0   128   19.1 
2026-07-17 00:00 UT   10 38 24.2   -12 59 14    48.562   47.984   54.8    1.0   128   19.1 
2026-07-18 00:00 UT   10 38 28.1   -12 59 18    48.574   47.984   54.0    1.0   129   19.1 
2026-07-19 00:00 UT   10 38 32.0   -12 59 23    48.587   47.984   53.1    1.0   129   19.1 
2026-07-20 00:00 UT   10 38 36.0   -12 59 29    48.599   47.984   52.3    1.0   130   19.1 
2026-07-21 00:00 UT   10 38 40.1   -12 59 35    48.610   47.984   51.4    0.9   130   19.1 
2026-07-22 00:00 UT   10 38 44.1   -12 59 42    48.622   47.984   50.6    0.9   131   19.1 
2026-07-23 00:00 UT   10 38 48.3   -12 59 49    48.634   47.984   49.8    0.9   131   19.1 
2026-07-24 00:00 UT   10 38 52.5   -12 59 57    48.645   47.984   48.9    0.9   132   19.1 
2026-07-25 00:00 UT   10 38 56.7   -13 00 06    48.656   47.984   48.1    0.9   132   19.1 
2026-07-26 00:00 UT   10 39 01.0   -13 00 15    48.667   47.983   47.3    0.9   133   19.1 
2026-07-27 00:00 UT   10 39 05.3   -13 00 25    48.678   47.983   46.4    0.9   134   19.1 
2026-07-28 00:00 UT   10 39 09.6   -13 00 36    48.688   47.983   45.6    0.9   134   19.1 
2026-07-29 00:00 UT   10 39 14.0   -13 00 47    48.699   47.983   44.8    0.9   135   19.1 
2026-07-30 00:00 UT   10 39 18.5   -13 00 58    48.709   47.983   44.0    0.8   135   19.1 
2026-07-31 00:00 UT   10 39 22.9   -13 01 10    48.719   47.983   43.1    0.8   136   19.1 
2026-08-01 00:00 UT   10 39 27.4   -13 01 23    48.729   47.983   42.3    0.8   137   19.1 
2026-08-02 00:00 UT   10 39 32.0   -13 01 37    48.738   47.983   41.5    0.8   138   19.1 
2026-08-03 00:00 UT   10 39 36.6   -13 01 51    48.747   47.983   40.7    0.8   138   19.1 
2026-08-04 00:00 UT   10 39 41.2   -13 02 05    48.757   47.983   39.9    0.8   139   19.1 
2026-08-05 00:00 UT   10 39 45.8   -13 02 20    48.766   47.983   39.1    0.8   140   19.1 
2026-08-06 00:00 UT   10 39 50.5   -13 02 36    48.774   47.983   38.3    0.8   141   19.1 
2026-08-07 00:00 UT   10 39 55.2   -13 02 52    48.783   47.983   37.6    0.7   141   19.1 
2026-08-08 00:00 UT   10 39 60.0   -13 03 09    48.791   47.983   36.8    0.7   142   19.1 
2026-08-09 00:00 UT   10 40 04.8   -13 03 26    48.799   47.983   36.0    0.7   143   19.1 
2026-08-10 00:00 UT   10 40 09.6   -13 03 44    48.807   47.982   35.2    0.7   144   19.1 
2026-08-11 00:00 UT   10 40 14.4   -13 04 03    48.814   47.982   34.5    0.7   145   19.1 
2026-08-12 00:00 UT   10 40 19.3   -13 04 22    48.822   47.982   33.7    0.7   146   19.1 


    Terminology:
            
    delta:  distance between minor planet and earth in AU
    radius: distance between minor planet and sun in AU
    magn:   magnitude (brightness) estimate    
    ra:     right ascension in hours (24h = 360deg)
    dec:    declination in degrees
    elong:  elongation in degrees (angle sun-earth-minor planet)    
    phase:  phase angle in degrees (angle sun-minor planet-earth)        
    AU:     Astronomical Unit (mean distance between earth and sun: 149597870.7 km
    

Orbital elements provided by the MPC (Minor Planet Center).
Calculations by a modified version of AAPlus, a C# implementation of the AA+ project by PJ Naughter from the algorithms presented in the book "Astronomical Algorithms" by Jean Meeus.
NGC2000 dso catalog and star labels from VizieR as provided by the Strasbourg astronomical Data Center.
Tycho2 catalog from the ESO archive.